Regional Weather Roundup
Issued by NWS Newport/Morehead, NC

Current Version | Previous Version | Text Only | Print | Product List | Glossary On
Versions: 1 2 3 4 5 6 7 8 9 10 11 12 13 14 15 16 17 18 19 20 21 22 23 24 25 26 27 28 29 30 31 32 33 34 35 36 37 38 39 40 41 42 43 44 45 46 47 48 49 50
000
ASUS42 KMHX 201125
RWRMHX
WEATHER ROUNDUP FOR EASTERN NORTH CAROLINA
NATIONAL WEATHER SERVICE NEWPORT/MOREHEAD CITY NC
600 AM EST TUE FEB 20 2018

NOTE: "FAIR" INDICATES FEW OR NO CLOUDS BELOW 12,000 FEET
WITH NO SIGNIFICANT WEATHER AND/OR OBSTRUCTIONS TO VISIBILITY

NCZ015>017-031-032-045>047-102-103-201200-
NORTH COAST

CITY           SKY/WX    TMP DP  RH WIND       PRES   REMARKS
EDENTON        FOG       61  61 100 S5        30.44S VSB 3/4
ELIZABETH CITY CLOUDY    63  63 100 S7        30.43R
KITTY HAWK     NOT AVBL
MANTEO         FAIR      59  59  99 S9        30.45R

$$

NCZ045>047-081-094-103-104-201200-
CENTRAL COAST

CITY           SKY/WX    TMP DP  RH WIND       PRES   REMARKS
FRISCO         CLOUDY    62  61  96 S6        30.46R

$$

NCZ095-097-098-100-101-201200-
SOUTHERN COAST

CITY           SKY/WX    TMP DP  RH WIND       PRES   REMARKS
BEAUFORT       CLOUDY    66  64  93 S7        30.45R
CEDAR ISLAND   NOT AVBL
JACKSONVILLE   MOCLDY    65  65 100 S5        30.43R FOG
PINEY ISLAND   NOT AVBL
WILMINGTON     FOG       64  64 100 CALM      30.43S VSB 3/4


$$

NCZ011>013-027>030-043-044-078>080-089-090>093-098-201200-
COASTAL PLAIN

CITY           SKY/WX    TMP DP  RH WIND       PRES   REMARKS
AHOSKIE        RAIN      51  51 100 CALM      30.44S VSB<1/4
CLINTON        CLOUDY    58  58 100 CALM      30.44R VSB 1/2
ELIZABETHTOWN  NOT AVBL
GOLDSBORO      FOG       57  56  98 CALM      30.42R VSB 3/8
GREENVILLE     CLOUDY    64  64 100 S6        30.43S FOG
HAVELOCK       NOT AVBL
KENANSVILLE    FOG       64  64 100 CALM      30.44R VSB 1/4
KINSTON        FOG       65  65 100 S5        30.44R VSB 1
NEW BERN       CLOUDY    65  65 100 SW5       30.45R
RICHLANDS      FOG       64  64 100 S3        30.44S VSB 1/2
ROCKY MOUNT    FOG       53  53 100 CALM      30.44R VSB 1/4
WASHINGTON     CLOUDY    63  62  98 CALM      30.45R FOG
WHITEVILLE     FOG       63  63  97 CALM      30.42R VSB 3/4

$$

AMZ130-135-150-152-154-156-158-170-250-252-270-ANZ085-086-088-633-658-670-201200-
MARINE OBSERVATIONS

STATION/POSITION TIME  TEMP    WIND        PRES    WAVE   SWELL
                       AIR SEA DIR/SP/G            HT/PER HT/PER
                 (UTC) (F)     (DEG/KT/KT) (MB)    (FT/S) (FT/S)
CHESAPEAKE LIGHT NOT AVBL
64 E VA BEACH    1050   54 50  190/ 12/ 12 1031.1    4/ 6   2/ 9
DUCK             1100   63 44  190/ 10/ 12 1030.4
2 E DUCK         1100      45                N/A     3/ 6   2/11
OREGON INLET     1100   57 49  170/  7/ 10 1031.2
13E OREGON INLT  1048      45                N/A     4/ 5   3/ 5
HATTERAS CG      1100   64 56  180/  6/  7 1031.3
DIAMOND BUOY     1110   72 72  170/ 16/ 19 1031.9
CAPE LOOKOUT     1100          170/  4/  5 1031.3
BEAUFORT LAB     1100   64 54  170/  7/ 10 1031.1
30 SE NEW RVR IN 1008   70 68  170/  8/ 12 1030.5
30 SE NEW RVR IN 1100      68                N/A     4/ 6
27 SE WRIGHTSVLE 1008   69 65  170/  8/ 14 1030.2
5 SE WRIGHTSVLE  1108   60 54  220/  4/  6 1030.3
225 S CAPE HAT   1050   72 74  110/ 12/ 14 1031.3    4/ 6   3/ 6
41 SE CHARLESTON 1110   71 68  140/  8/ 10 1029.4

$$




USA.gov is the U.S. government's official web portal to all federal, state and local government web resources and services.